Location: Sternwarte Hubelmatt
(47.0367°N, 8.3053°E)
Time: 08:25:21
(UTC+01:00)

ISS - Visible Passes

Search period start: 01 December 2023 00:00
Search period end: 11 December 2023 00:00
Orbit: 416 x 417 km, 51.6° (Epoch: 01 December)

Date Brightness Start Highest point End Pass type
(mag) Time Alt. Az. Time Alt. Az. Time Alt. Az.
01 Dec -3.9 18:17:07 10° WNW 18:20:29 80° NNE 18:21:29 42° ESE visible
01 Dec -0.1 19:54:22 10° W 19:54:25 10° W 19:54:25 10° W visible
02 Dec -3.6 17:28:36 10° WNW 17:31:56 58° NNE 17:35:14 10° E visible
02 Dec -2.0 19:05:31 10° WNW 19:08:16 30° SW 19:08:16 30° SW visible
03 Dec -2.9 18:16:45 10° WNW 18:20:00 49° SSW 18:22:14 18° SE visible
04 Dec -3.6 17:27:58 10° WNW 17:31:19 76° SSW 17:34:39 10° ESE visible
04 Dec -0.8 19:05:46 10° WSW 19:07:33 14° SW 19:09:19 10° SSW visible
05 Dec -1.2 18:16:16 10° W 18:18:54 22° SW 18:21:31 10° S visible
06 Dec -1.9 17:27:01 10° WNW 17:30:05 34° SW 17:33:08 10° SSE visible
08 Dec -0.5 17:26:13 10° W 17:28:14 15° SW 17:30:14 10° S visible
